TimeCDT,TemperatureF,Dew PointF,Humidity,Sea Level PressureIn,VisibilityMPH,Wind Direction,Wind SpeedMPH,Gust SpeedMPH,PrecipitationIn,Events,Conditions,WindDirDegrees,DateUTC
12:53 AM,69.1,61.0,75,29.88,10.0,North,3.5,-,N/A,,Mostly Cloudy,350,2012-09-18 05:53:00
1:53 AM,69.1,62.1,78,29.89,10.0,NW,6.9,-,N/A,,Scattered Clouds,320,2012-09-18 06:53:00
2:53 AM,66.9,62.1,84,29.90,10.0,NNW,6.9,-,N/A,,Clear,340,2012-09-18 07:53:00
3:53 AM,66.9,61.0,81,29.90,10.0,North,5.8,-,N/A,,Scattered Clouds,350,2012-09-18 08:53:00
4:53 AM,66.9,62.1,84,29.90,10.0,NNW,6.9,-,N/A,,Scattered Clouds,340,2012-09-18 09:53:00
5:53 AM,64.0,61.0,90,29.90,10.0,Calm,Calm,-,N/A,,Scattered Clouds,0,2012-09-18 10:53:00
6:53 AM,66.9,62.1,84,29.96,10.0,NNW,12.7,-,N/A,,Mostly Cloudy,330,2012-09-18 11:53:00
7:53 AM,66.9,62.1,84,30.00,10.0,NNW,11.5,-,N/A,,Mostly Cloudy,330,2012-09-18 12:53:00
8:02 AM,66.2,62.6,88,30.02,10.0,NNW,11.5,-,N/A,,Overcast,330,2012-09-18 13:02:00
8:53 AM,68.0,62.1,81,30.03,10.0,North,12.7,-,N/A,,Overcast,350,2012-09-18 13:53:00
9:53 AM,70.0,60.1,71,30.04,10.0,NNE,16.1,-,N/A,,Mostly Cloudy,20,2012-09-18 14:53:00
10:17 AM,71.6,59.0,64,30.06,10.0,NNE,13.8,23.0,N/A,,Mostly Cloudy,20,2012-09-18 15:17:00
10:53 AM,73.0,57.9,59,30.05,10.0,North,13.8,-,N/A,,Mostly Cloudy,10,2012-09-18 15:53:00
11:53 AM,77.0,57.0,50,30.06,10.0,NNE,13.8,-,N/A,,Scattered Clouds,20,2012-09-18 16:53:00
12:53 PM,79.0,52.0,39,30.05,10.0,North,17.3,23.0,N/A,,Scattered Clouds,10,2012-09-18 17:53:00
1:53 PM,82.9,45.0,26,30.04,10.0,North,15.0,23.0,N/A,,Partly Cloudy,360,2012-09-18 18:53:00
2:53 PM,-9999,-9999,N/A,30.04,10.0,North,19.6,23.0,N/A,,Clear,360,2012-09-18 19:53:00
3:53 PM,84.0,39.0,20,30.02,10.0,North,16.1,24.2,N/A,,Partly Cloudy,350,2012-09-18 20:53:00
4:53 PM,82.9,37.0,19,30.00,10.0,NNE,13.8,-,N/A,,Clear,20,2012-09-18 21:53:00
5:53 PM,82.9,35.1,18,30.00,10.0,North,12.7,-,N/A,,Clear,350,2012-09-18 22:53:00
6:53 PM,80.1,34.0,19,30.00,10.0,NNE,9.2,-,N/A,,Clear,20,2012-09-18 23:53:00
7:53 PM,73.0,37.0,27,30.01,10.0,NNE,6.9,-,N/A,,Clear,20,2012-09-19 00:53:00
8:53 PM,72.0,39.9,31,30.04,10.0,North,6.9,-,N/A,,Clear,360,2012-09-19 01:53:00
9:53 PM,66.9,42.1,40,30.06,10.0,NNE,5.8,-,N/A,,Clear,20,2012-09-19 02:53:00
10:53 PM,68.0,42.1,39,30.07,10.0,Calm,Calm,-,N/A,,Clear,0,2012-09-19 03:53:00
11:53 PM,69.1,42.1,38,30.07,10.0,Calm,Calm,-,N/A,,Clear,0,2012-09-19 04:53:00